Location: Asbacherhof
(48.8543°N, 10.7903°E)
Time: 22:37:19
(UTC+00:00)

Lacrosse 5 - Pass Details

Date: 26 May 2022
Orbit: 714 x 724 km, 57.0° (Epoch: 09 March)

Event Time Altitude Azimuth Distance (km) Brightness Sun altitude
Exits shadow 00:58:31 27° 189° (S) 1,385 2.8 -16.3°
Maximum altitude 01:00:52 44° 134° (SE) 993 2.4 -16.1°
Drops below altitude 10° 01:05:42 10° 63° (ENE) 2,217 5.2 -15.7°
Sets 01:08:10 0° 57° (ENE) 3,140 6.3 -15.5°
